Overview Statistics Trail Chart Weather Telemetry Raw packets
 

This is the latest recevied weather packets stored in our database for station/object SV9TNF-55. If no packets are shown the sender has not sent any weather packets the latest 10 day(s).

<< 31 32 33 34 35 36 37 >>
Time Temp. Humidity Pressure Rain* Wind** Luminosity Snow
1788190633 22.78° C 57% 1014.3 hPa 0 mm 0.45 m/s, 292° - -
1788190032 23.33° C 59% 1014.3 hPa 0 mm 1.79 m/s, 337° - -
1788189432 23.33° C 59% 1014.3 hPa 0 mm 1.79 m/s, 337° - -
1788188832 23.33° C 59% 1014.3 hPa 0 mm 1.79 m/s, 337° - -
1788188231 23.89° C 57% 1014.4 hPa 0 mm 2.24 m/s, 337° - -
1788187631 23.89° C 57% 1014.4 hPa 0 mm 2.24 m/s, 337° - -
1788187032 23.89° C 56% 1014.3 hPa 0 mm 2.24 m/s, 292° - -
1788186431 24.44° C 56% 1014.3 hPa 0 mm 3.13 m/s, 315° - -
1788185832 24.44° C 56% 1014.3 hPa 0 mm 3.13 m/s, 315° - -
1788185231 24.44° C 56% 1014.3 hPa 0 mm 3.13 m/s, 315° - -
1788184631 24.44° C 55% 1014.3 hPa 0 mm 3.58 m/s, 315° - -
1788184031 24.44° C 55% 1014.3 hPa 0 mm 3.58 m/s, 315° - -
1788183432 25° C 53% 1014.3 hPa 0 mm 3.58 m/s, 337° - -
1788182831 25° C 50% 1014.2 hPa 0 mm 3.13 m/s, 337° - -
1788182231 25° C 50% 1014.2 hPa 0 mm 3.13 m/s, 337° - -
1788181630 25° C 52% 1014.4 hPa 0 mm 3.13 m/s, 337° - -
1788181030 25° C 54% 1014.7 hPa 0 mm 3.58 m/s, 337° - -
1788180430 25° C 54% 1014.7 hPa 0 mm 3.58 m/s, 337° - -
1788179830 25° C 54% 1014.7 hPa 0 mm 3.58 m/s, 337° - -
1788179230 25° C 54% 1014.7 hPa 0 mm 3.58 m/s, 337° - -
1788178637 25° C 54% 1014.7 hPa 0 mm 3.58 m/s, 337° - -
1788178030 25° C 54% 1014.7 hPa 0 mm 3.58 m/s, 337° - -
1788177429 25° C 54% 1015 hPa 0 mm 4.02 m/s, 337° - -
1788176829 25° C 50% 1015.1 hPa 0 mm 4.02 m/s, 337° - -
1788176230 25° C 50% 1015.1 hPa 0 mm 4.02 m/s, 337° - -

* Rain latest hour (hover to see other rain measurements)
** Current wind speed in m/s (hover to see current wind gust speed)